Regional Weather Roundup
Issued by NWS Goodland, KS

Home | Current Version | Previous Version | Graphics & Text | Print | Product List | Glossary On
Versions: 1 2 3 4 5 6 7 8 9 10 11 12 13 14 15 16 17 18 19 20 21 22 23 24 25 26 27 28 29 30 31 32 33 34 35 36 37 38 39 40 41 42 43 44 45 46 47 48 49 50
000
ASUS43 KGLD 282359
RWRGLD

GOODLAND FORECAST AREA HOURLY WEATHER ROUNDUP
NATIONAL WEATHER SERVICE GOODLAND KS
500 PM MST SUN DEC 28 2014

...OFFICIAL OBSERVATIONS...

CITY           SKY/WX    TMP DP  RH WIND       PRES   REMARKS
GOODLAND KS    CLEAR     22  19  89 SE8       29.93R
HILL CITY KS   CLOUDY    31  25  78 E6        30.02R
IMPERIAL NEB   PTCLDY    18  12  77 E5        29.96R
MCCOOK NEB     CLOUDY    24  16  71 E7        30.00R
AKRON CO       CLOUDY    18  10  71 CALM      29.89S
BURLINGTON CO  CLEAR     23  18  81 SE9       29.90R
LIMON CO       MOCLDY    24  18  77 NW3       29.87R
$$

...UNOFFICIAL OBSERVATIONS...

CITY           SKY/WX    TMP DP  RH WIND       PRES   REMARKS
COLBY KS       PTCLDY    25  25 100 E5        29.98R
NORTON KS      CLOUDY    28  19  69 CALM      30.01S
SHARON SPRINGS   N/A     28  22  79 CALM        N/A
TRIBUNE KS     CLEAR     30  27  86 E6        29.93R
KIT CARSON CO    N/A     29  17  60 MISG        N/A
YUMA CO          N/A     19  11  69 CALM        N/A
$$



USA.gov is the U.S. government's official web portal to all federal, state and local government web resources and services.